{"data":{"norad_id":58747,"intl_designator":"2024-005V","name":"STARLINK-31183","alt_names":[],"object_type":"PAYLOAD","status":"ACTIVE","operator":null,"country":"US","launch_date":"2024-01-07","launch_site_code":"AFETR","launch_vehicle":null,"mission":null,"orbit_class":"UNKNOWN","rcs_meters":null,"size_class":null,"mass_kg":null,"dimensions":null,"purposes":["comms"],"wikipedia_slug":null,"has_3d_model":false,"image_url":null,"decayed_at":null,"tle_current":{"epoch":"2026-05-25T00:12:31.993632Z","epoch_age_seconds":84473,"freshness":"FRESH","line1":"1 58747U 24005V   26145.00870363  .00000790  00000+0  38255-4 0  9999","line2":"2 58747  43.0020 148.9252 0002012 271.3887  88.6735 15.27580012132211","mean_motion":15.27580012,"eccentricity":0.0002012,"inclination_deg":43.002,"raan_deg":148.9252,"arg_perigee_deg":271.3887,"mean_anomaly_deg":88.6735,"bstar":3.8255e-5,"rev_number":13221,"period_min":94.266747973133,"perigee_km":481.66858947204,"apogee_km":484.42953074263,"semimajor_km":6861.1860601073,"source":"CELESTRAK","updated_at":"2026-05-25T13:38:18.740726Z"}}}